Time,TemperatureF,DewpointF,PressureIn,WindDirection,WindDirectionDegrees,WindSpeedMPH,WindSpeedGustMPH,Humidity,HourlyPrecipIn,Conditions,Clouds,dailyrainin,SoftwareType,DateUTC
2013-01-30 00:00:00,76.0,67.0,30.12,ESE,120,23.0,26.0,74,-99.99,,,-99.99,,2013-01-30 05:00:00,
2013-01-30 00:21:00,76.0,67.0,30.12,ESE,120,23.0,26.0,74,-99.99,,,-99.99,,2013-01-30 05:21:00,
2013-01-30 00:31:00,76.0,67.0,30.12,ESE,120,23.0,26.0,74,-99.99,,,-99.99,,2013-01-30 05:31:00,
2013-01-30 00:42:00,76.0,67.0,30.12,ESE,120,23.0,26.0,74,-99.99,,,-99.99,,2013-01-30 05:42:00,
2013-01-30 00:51:00,76.0,67.0,30.12,ESE,120,23.0,26.0,74,-99.99,,,-99.99,,2013-01-30 05:51:00,
2013-01-30 01:00:00,75.0,65.0,30.09,ESE,120,28.0,29.0,69,-99.99,,,-99.99,,2013-01-30 06:00:00,
2013-01-30 01:21:00,75.0,65.0,30.09,ESE,120,28.0,29.0,69,-99.99,,,-99.99,,2013-01-30 06:21:00,
2013-01-30 01:31:00,75.0,65.0,30.09,ESE,120,28.0,29.0,69,-99.99,,,-99.99,,2013-01-30 06:31:00,
2013-01-30 01:41:00,75.0,65.0,30.09,ESE,120,28.0,29.0,69,-99.99,,,-99.99,,2013-01-30 06:41:00,
2013-01-30 01:51:00,75.0,65.0,30.09,ESE,120,28.0,29.0,69,-99.99,,,-99.99,,2013-01-30 06:51:00,
2013-01-30 02:00:00,75.0,68.0,30.09,SE,130,23.0,25.0,77,-99.99,,,-99.99,,2013-01-30 07:00:00,
2013-01-30 02:21:00,75.0,68.0,30.09,SE,130,23.0,25.0,77,-99.99,,,-99.99,,2013-01-30 07:21:00,
2013-01-30 02:31:00,75.0,68.0,30.09,SE,130,23.0,25.0,77,-99.99,,,-99.99,,2013-01-30 07:31:00,
2013-01-30 02:41:00,75.0,68.0,30.09,SE,130,23.0,25.0,77,-99.99,,,-99.99,,2013-01-30 07:41:00,
2013-01-30 02:52:00,75.0,68.0,30.09,SE,130,23.0,25.0,77,-99.99,,,-99.99,,2013-01-30 07:52:00,
2013-01-30 03:00:00,75.0,67.0,30.07,SE,140,24.0,25.0,75,-99.99,,,-99.99,,2013-01-30 08:00:00,
2013-01-30 03:21:00,75.0,67.0,30.07,SE,140,24.0,25.0,75,-99.99,,,-99.99,,2013-01-30 08:21:00,
2013-01-30 03:31:00,75.0,67.0,30.07,SE,140,24.0,25.0,75,-99.99,,,-99.99,,2013-01-30 08:31:00,
2013-01-30 03:41:00,75.0,67.0,30.07,SE,140,24.0,25.0,75,-99.99,,,-99.99,,2013-01-30 08:41:00,
2013-01-30 03:52:00,75.0,67.0,30.07,SE,140,24.0,25.0,75,-99.99,,,-99.99,,2013-01-30 08:52:00,
2013-01-30 04:00:00,75.0,70.0,30.07,SE,130,26.0,29.0,83,-99.99,,,-99.99,,2013-01-30 09:00:00,
2013-01-30 04:21:00,75.0,70.0,30.07,SE,130,26.0,29.0,83,-99.99,,,-99.99,,2013-01-30 09:21:00,
2013-01-30 04:31:00,75.0,70.0,30.07,SE,130,26.0,29.0,83,-99.99,,,-99.99,,2013-01-30 09:31:00,
2013-01-30 04:41:00,75.0,70.0,30.07,SE,130,26.0,29.0,83,-99.99,,,-99.99,,2013-01-30 09:41:00,
2013-01-30 04:51:00,75.0,70.0,30.07,SE,130,26.0,29.0,83,-99.99,,,-99.99,,2013-01-30 09:51:00,
2013-01-30 05:00:00,75.0,66.0,30.06,SE,140,26.0,29.0,74,-99.99,,,-99.99,,2013-01-30 10:00:00,
2013-01-30 05:21:00,75.0,66.0,30.06,SE,140,26.0,29.0,74,-99.99,,,-99.99,,2013-01-30 10:21:00,
2013-01-30 05:31:00,75.0,66.0,30.06,SE,140,26.0,29.0,74,-99.99,,,-99.99,,2013-01-30 10:31:00,
2013-01-30 05:41:00,75.0,66.0,30.06,SE,140,26.0,29.0,74,-99.99,,,-99.99,,2013-01-30 10:41:00,
2013-01-30 05:51:00,75.0,66.0,30.06,SE,140,26.0,29.0,74,-99.99,,,-99.99,,2013-01-30 10:51:00,
2013-01-30 06:00:00,75.0,65.0,30.06,SE,140,22.0,24.0,72,-99.99,,,-99.99,,2013-01-30 11:00:00,
2013-01-30 06:21:00,75.0,65.0,30.06,SE,140,22.0,24.0,72,-99.99,,,-99.99,,2013-01-30 11:21:00,
2013-01-30 06:32:00,75.0,65.0,30.06,SE,140,22.0,24.0,72,-99.99,,,-99.99,,2013-01-30 11:32:00,
2013-01-30 06:41:00,75.0,65.0,30.06,SE,140,22.0,24.0,72,-99.99,,,-99.99,,2013-01-30 11:41:00,
2013-01-30 06:51:00,75.0,65.0,30.06,SE,140,22.0,24.0,72,-99.99,,,-99.99,,2013-01-30 11:51:00,
2013-01-30 07:00:00,75.0,68.0,30.07,SE,140,22.0,24.0,80,-99.99,,,-99.99,,2013-01-30 12:00:00,
2013-01-30 07:21:00,75.0,68.0,30.07,SE,140,22.0,24.0,80,-99.99,,,-99.99,,2013-01-30 12:21:00,
2013-01-30 07:32:00,75.0,68.0,30.07,SE,140,22.0,24.0,80,-99.99,,,-99.99,,2013-01-30 12:32:00,
2013-01-30 07:42:00,75.0,68.0,30.07,SE,140,22.0,24.0,80,-99.99,,,-99.99,,2013-01-30 12:42:00,
2013-01-30 08:00:00,75.0,68.0,30.09,SE,140,23.0,25.0,77,-99.99,,,-99.99,,2013-01-30 13:00:00,
2013-01-30 08:22:00,75.0,68.0,30.09,SE,140,23.0,25.0,77,-99.99,,,-99.99,,2013-01-30 13:22:00,
2013-01-30 08:31:00,75.0,68.0,30.09,SE,140,23.0,25.0,77,-99.99,,,-99.99,,2013-01-30 13:31:00,
2013-01-30 08:42:00,75.0,68.0,30.09,SE,140,23.0,25.0,77,-99.99,,,-99.99,,2013-01-30 13:42:00,
2013-01-30 08:52:00,75.0,68.0,30.09,SE,140,23.0,25.0,77,-99.99,,,-99.99,,2013-01-30 13:52:00,
2013-01-30 09:00:00,76.0,66.0,30.09,SSE,150,21.0,23.0,72,-99.99,,,-99.99,,2013-01-30 14:00:00,
2013-01-30 09:21:00,76.0,66.0,30.09,SSE,150,21.0,23.0,72,-99.99,,,-99.99,,2013-01-30 14:21:00,
2013-01-30 09:31:00,76.0,66.0,30.09,SSE,150,21.0,23.0,72,-99.99,,,-99.99,,2013-01-30 14:31:00,
2013-01-30 09:41:00,76.0,66.0,30.09,SSE,150,21.0,23.0,72,-99.99,,,-99.99,,2013-01-30 14:41:00,
2013-01-30 09:52:00,76.0,66.0,30.09,SSE,150,21.0,23.0,72,-99.99,,,-99.99,,2013-01-30 14:52:00,
2013-01-30 10:00:00,76.0,66.0,30.09,SSE,150,21.0,22.0,72,-99.99,,,-99.99,,2013-01-30 15:00:00,
2013-01-30 10:22:00,76.0,66.0,30.09,SSE,150,21.0,22.0,72,-99.99,,,-99.99,,2013-01-30 15:22:00,
2013-01-30 10:31:00,76.0,66.0,30.09,SSE,150,21.0,22.0,72,-99.99,,,-99.99,,2013-01-30 15:31:00,
2013-01-30 10:42:00,76.0,66.0,30.09,SSE,150,21.0,22.0,72,-99.99,,,-99.99,,2013-01-30 15:42:00,
2013-01-30 10:52:00,76.0,66.0,30.09,SSE,150,21.0,22.0,72,-99.99,,,-99.99,,2013-01-30 15:52:00,
2013-01-30 11:00:00,76.0,67.0,30.07,SE,140,25.0,26.0,74,-99.99,,,-99.99,,2013-01-30 16:00:00,
2013-01-30 11:22:00,76.0,67.0,30.07,SE,140,25.0,26.0,74,-99.99,,,-99.99,,2013-01-30 16:22:00,
2013-01-30 11:31:00,76.0,67.0,30.07,SE,140,25.0,26.0,74,-99.99,,,-99.99,,2013-01-30 16:31:00,
2013-01-30 11:41:00,76.0,67.0,30.07,SE,140,25.0,26.0,74,-99.99,,,-99.99,,2013-01-30 16:41:00,
2013-01-30 11:51:00,76.0,67.0,30.07,SE,140,25.0,26.0,74,-99.99,,,-99.99,,2013-01-30 16:51:00,
2013-01-30 12:00:00,76.0,67.0,30.04,SE,140,26.0,26.0,73,-99.99,,,-99.99,,2013-01-30 17:00:00,
2013-01-30 12:21:00,76.0,67.0,30.04,SE,140,26.0,26.0,73,-99.99,,,-99.99,,2013-01-30 17:21:00,
2013-01-30 12:31:00,76.0,67.0,30.04,SE,140,26.0,26.0,73,-99.99,,,-99.99,,2013-01-30 17:31:00,
2013-01-30 12:41:00,76.0,67.0,30.04,SE,140,26.0,26.0,73,-99.99,,,-99.99,,2013-01-30 17:41:00,
2013-01-30 12:52:00,76.0,67.0,30.04,SE,140,26.0,26.0,73,-99.99,,,-99.99,,2013-01-30 17:52:00,
2013-01-30 13:00:00,76.0,69.0,30.00,SE,140,25.0,28.0,79,-99.99,,,-99.99,,2013-01-30 18:00:00,
2013-01-30 13:21:00,76.0,69.0,30.00,SE,140,25.0,28.0,79,-99.99,,,-99.99,,2013-01-30 18:21:00,
2013-01-30 13:32:00,76.0,69.0,30.00,SE,140,25.0,28.0,79,-99.99,,,-99.99,,2013-01-30 18:32:00,
2013-01-30 13:42:00,76.0,69.0,30.00,SE,140,25.0,28.0,79,-99.99,,,-99.99,,2013-01-30 18:42:00,
2013-01-30 13:51:00,76.0,69.0,30.00,SE,140,25.0,28.0,79,-99.99,,,-99.99,,2013-01-30 18:51:00,
2013-01-30 14:00:00,76.0,70.0,29.98,SSE,150,25.0,28.0,81,-99.99,,,-99.99,,2013-01-30 19:00:00,
2013-01-30 14:21:00,76.0,70.0,29.98,SSE,150,25.0,28.0,81,-99.99,,,-99.99,,2013-01-30 19:21:00,
2013-01-30 14:31:00,76.0,70.0,29.98,SSE,150,25.0,28.0,81,-99.99,,,-99.99,,2013-01-30 19:31:00,
2013-01-30 14:42:00,76.0,70.0,29.98,SSE,150,25.0,28.0,81,-99.99,,,-99.99,,2013-01-30 19:42:00,
2013-01-30 14:52:00,76.0,70.0,29.98,SSE,150,25.0,28.0,81,-99.99,,,-99.99,,2013-01-30 19:52:00,
2013-01-30 15:00:00,76.0,71.0,29.99,SSE,150,21.0,23.0,83,-99.99,,,-99.99,,2013-01-30 20:00:00,
2013-01-30 15:21:00,76.0,71.0,29.99,SSE,150,21.0,23.0,83,-99.99,,,-99.99,,2013-01-30 20:21:00,
2013-01-30 15:32:00,76.0,71.0,29.99,SSE,150,21.0,23.0,83,-99.99,,,-99.99,,2013-01-30 20:32:00,
2013-01-30 15:41:00,76.0,71.0,29.99,SSE,150,21.0,23.0,83,-99.99,,,-99.99,,2013-01-30 20:41:00,
2013-01-30 15:52:00,76.0,71.0,29.99,SSE,150,21.0,23.0,83,-99.99,,,-99.99,,2013-01-30 20:52:00,
2013-01-30 16:00:00,77.0,72.0,30.00,SSE,150,17.0,18.0,83,-99.99,,,-99.99,,2013-01-30 21:00:00,
2013-01-30 16:21:00,77.0,72.0,30.00,SSE,150,17.0,18.0,83,-99.99,,,-99.99,,2013-01-30 21:21:00,
2013-01-30 16:31:00,77.0,72.0,30.00,SSE,150,17.0,18.0,83,-99.99,,,-99.99,,2013-01-30 21:31:00,
2013-01-30 16:41:00,77.0,72.0,30.00,SSE,150,17.0,18.0,83,-99.99,,,-99.99,,2013-01-30 21:41:00,
2013-01-30 16:52:00,77.0,72.0,30.00,SSE,150,17.0,18.0,83,-99.99,,,-99.99,,2013-01-30 21:52:00,
2013-01-30 17:00:00,77.0,72.0,30.01,SSE,150,11.0,14.0,85,-99.99,,,-99.99,,2013-01-30 22:00:00,
2013-01-30 17:21:00,77.0,72.0,30.01,SSE,150,11.0,14.0,85,-99.99,,,-99.99,,2013-01-30 22:21:00,
2013-01-30 17:31:00,77.0,72.0,30.01,SSE,150,11.0,14.0,85,-99.99,,,-99.99,,2013-01-30 22:31:00,
2013-01-30 17:41:00,77.0,72.0,30.01,SSE,150,11.0,14.0,85,-99.99,,,-99.99,,2013-01-30 22:41:00,
2013-01-30 17:52:00,77.0,72.0,30.01,SSE,150,11.0,14.0,85,-99.99,,,-99.99,,2013-01-30 22:52:00,
2013-01-30 18:00:00,76.0,72.0,30.00,SE,140,13.0,14.0,87,-99.99,,,-99.99,,2013-01-30 23:00:00,
2013-01-30 18:21:00,76.0,72.0,30.00,SE,140,13.0,14.0,87,-99.99,,,-99.99,,2013-01-30 23:21:00,
2013-01-30 18:32:00,76.0,72.0,30.00,SE,140,13.0,14.0,87,-99.99,,,-99.99,,2013-01-30 23:32:00,
2013-01-30 18:42:00,76.0,72.0,30.00,SE,140,13.0,14.0,87,-99.99,,,-99.99,,2013-01-30 23:42:00,
2013-01-30 18:52:00,76.0,72.0,30.00,SE,140,13.0,14.0,87,-99.99,,,-99.99,,2013-01-30 23:52:00,
2013-01-30 19:00:00,75.0,72.0,30.00,SE,140,13.0,14.0,88,-99.99,,,-99.99,,2013-01-31 00:00:00,
2013-01-30 19:21:00,75.0,72.0,30.00,SE,140,13.0,14.0,88,-99.99,,,-99.99,,2013-01-31 00:21:00,
2013-01-30 19:31:00,75.0,72.0,30.00,SE,140,13.0,14.0,88,-99.99,,,-99.99,,2013-01-31 00:31:00,
2013-01-30 19:41:00,75.0,72.0,30.00,SE,140,13.0,14.0,88,-99.99,,,-99.99,,2013-01-31 00:41:00,
2013-01-30 19:52:00,75.0,72.0,30.00,SE,140,13.0,14.0,88,-99.99,,,-99.99,,2013-01-31 00:52:00,
2013-01-30 20:00:00,75.0,72.0,30.02,SE,140,13.0,14.0,88,-99.99,,,-99.99,,2013-01-31 01:00:00,
2013-01-30 20:21:00,75.0,72.0,30.02,SE,140,13.0,14.0,88,-99.99,,,-99.99,,2013-01-31 01:21:00,
2013-01-30 20:31:00,75.0,72.0,30.02,SE,140,13.0,14.0,88,-99.99,,,-99.99,,2013-01-31 01:31:00,
2013-01-30 20:41:00,75.0,72.0,30.02,SE,140,13.0,14.0,88,-99.99,,,-99.99,,2013-01-31 01:41:00,
2013-01-30 20:52:00,75.0,72.0,30.02,SE,140,13.0,14.0,88,-99.99,,,-99.99,,2013-01-31 01:52:00,
2013-01-30 21:00:00,76.0,73.0,30.03,SSE,150,14.0,15.0,92,-99.99,,,-99.99,,2013-01-31 02:00:00,
2013-01-30 21:21:00,76.0,73.0,30.03,SSE,150,14.0,15.0,92,-99.99,,,-99.99,,2013-01-31 02:21:00,
2013-01-30 21:31:00,76.0,73.0,30.03,SSE,150,14.0,15.0,92,-99.99,,,-99.99,,2013-01-31 02:31:00,
2013-01-30 21:41:00,76.0,73.0,30.03,SSE,150,14.0,15.0,92,-99.99,,,-99.99,,2013-01-31 02:41:00,
2013-01-30 21:51:00,76.0,73.0,30.03,SSE,150,14.0,15.0,92,-99.99,,,-99.99,,2013-01-31 02:51:00,
2013-01-30 22:00:00,76.0,74.0,30.04,South,170,14.0,16.0,93,-99.99,,,-99.99,,2013-01-31 03:00:00,
2013-01-30 22:21:00,76.0,74.0,30.04,South,170,14.0,16.0,93,-99.99,,,-99.99,,2013-01-31 03:21:00,
2013-01-30 22:31:00,76.0,74.0,30.04,South,170,14.0,16.0,93,-99.99,,,-99.99,,2013-01-31 03:31:00,
2013-01-30 22:41:00,76.0,74.0,30.04,South,170,14.0,16.0,93,-99.99,,,-99.99,,2013-01-31 03:41:00,
2013-01-30 22:51:00,76.0,74.0,30.04,South,170,14.0,16.0,93,-99.99,,,-99.99,,2013-01-31 03:51:00,
2013-01-30 23:00:00,76.0,74.0,30.04,South,180,13.0,13.0,95,-99.99,,,-99.99,,2013-01-31 04:00:00,
2013-01-30 23:21:00,76.0,74.0,30.04,South,180,13.0,13.0,95,-99.99,,,-99.99,,2013-01-31 04:21:00,
2013-01-30 23:31:00,76.0,74.0,30.04,South,180,13.0,13.0,95,-99.99,,,-99.99,,2013-01-31 04:31:00,
2013-01-30 23:41:00,76.0,74.0,30.04,South,180,13.0,13.0,95,-99.99,,,-99.99,,2013-01-31 04:41:00,
2013-01-30 23:51:00,76.0,74.0,30.04,South,180,13.0,13.0,95,-99.99,,,-99.99,,2013-01-31 04:51:00,